Tracking 23446 objects as of 19-Jun-2021
HD Live streaming from Space Station
objects crossing your sky now

ONEWEB-0245

Track ONEWEB-0245 now!
10-day predictions
ONEWEB-0245 is classified as:


NORAD ID: 48778
Int'l Code: 2021-045M
Perigee: 466.5 km
Apogee: 480.3 km
Inclination: 87.4 °
Period: 93.9 minutes
Semi major axis: 6844 km
RCS: Unknown
Launch date: May 28, 2021
Source: United Kingdom (UK)
Launch site: VOSTOCHNY COSMODROME (VOSTO)
aabbcc
Your satellite tracking list
Your tracking list is empty




NASA's NSSDC Master Catalog

Two Line Element Set (TLE):
1 48778U 21045M   21169.75001157 -.00913922  00000-0 -31056-1 0  9995
2 48778  87.4055 269.1730 0010017 174.0660 311.4554 15.33202842  1909
Source of the keplerian elements: AFSPC